Вернуться в каталог

FENGYUN 1C DEB

АктивенSSO
NORAD 30895·DEBRIS·🇨🇳 China

Запущен May 10, 1999 с Taiyuan Satellite Launch Center

Loading…

Ближайшие Пролёты (ближайшие 24 часа)

TLE

СвежийSource: Space-Track

Эпоха: Sep 14, 2026, 10:21 UTC

1 30895U 99025AYH 26257.43180762  .00000451  00000-0  14450-3 0  9990
2 30895  98.6901 331.8924 0216191  33.7760  23.5546 14.32080044 17320

Отслеживайте FENGYUN 1C DEB в реальном времени с AllMySat

Download on the App Store